Radiation Dose at Monitoring Post of Fukushima Daini Nuclear Power Station
Date,Time,MP-1(microSv/h),MP-2(microSv/h),MP-3(microSv/h),MP-4(microSv/h),MP-5(microSv/h),MP-6(microSv/h),MP-7(microSv/h),Wind Direction,Wind Velocity(m/s),Rain
2024/05/28,00:00,0.150,0.131,0.214,0.201,0.207,0.117,0.076,south-southwest,3.1,No
2024/05/28,00:10,0.147,0.131,0.215,0.200,0.208,0.117,0.075,southwest,3.5,No
2024/05/28,00:20,0.148,0.131,0.214,0.202,0.206,0.117,0.076,southwest,2.6,No
2024/05/28,00:30,0.149,0.131,0.216,0.199,0.208,0.116,0.075,south-southwest,2.3,No
2024/05/28,00:40,0.148,0.132,0.213,0.202,0.207,0.116,0.075,south-southwest,1.7,No
2024/05/28,00:50,0.149,0.132,0.216,0.199,0.207,0.117,0.075,west,0.6,No
2024/05/28,01:00,0.148,0.132,0.214,0.202,0.209,0.116,0.076,west-southwest,1.2,No
2024/05/28,01:10,0.150,0.132,0.215,0.201,0.207,0.117,0.075,southwest,0.9,No
2024/05/28,01:20,0.148,0.131,0.214,0.199,0.209,0.117,0.075,west-northwest,1.1,No
2024/05/28,01:30,0.149,0.131,0.214,0.201,0.208,0.118,0.076,northwest,1.9,No
2024/05/28,01:40,0.149,0.132,0.215,0.200,0.209,0.117,0.075,northwest,1.8,No
2024/05/28,01:50,0.148,0.132,0.215,0.203,0.209,0.118,0.076,west-northwest,1.2,No
2024/05/28,02:00,0.149,0.131,0.215,0.200,0.207,0.117,0.075,-,CALM,No
2024/05/28,02:10,0.148,0.132,0.214,0.202,0.208,0.118,0.075,south-southwest,0.7,No
2024/05/28,02:20,0.150,0.132,0.214,0.200,0.208,0.117,0.076,south-southwest,1.5,No
2024/05/28,02:30,0.148,0.131,0.214,0.202,0.209,0.117,0.076,southwest,0.9,No
2024/05/28,02:40,0.151,0.131,0.216,0.200,0.208,0.117,0.076,west-southwest,1.0,No
2024/05/28,02:50,0.149,0.131,0.215,0.202,0.210,0.117,0.076,west-northwest,1.2,No
2024/05/28,03:00,0.150,0.131,0.215,0.201,0.207,0.117,0.076,northwest,0.9,No
2024/05/28,03:10,0.151,0.130,0.215,0.201,0.209,0.117,0.076,west-northwest,0.9,No
2024/05/28,03:20,0.149,0.132,0.215,0.202,0.209,0.117,0.077,northwest,2.0,No
2024/05/28,03:30,0.149,0.132,0.214,0.200,0.207,0.117,0.076,northwest,1.7,No
2024/05/28,03:40,0.148,0.133,0.216,0.202,0.209,0.117,0.077,northwest,2.2,No
2024/05/28,03:50,0.150,0.132,0.215,0.201,0.209,0.118,0.077,north-northwest,5.1,No
2024/05/28,04:00,0.148,0.132,0.217,0.202,0.210,0.118,0.076,north-northwest,7.6,No
2024/05/28,04:10,0.149,0.132,0.215,0.200,0.209,0.117,0.076,north-northwest,6.3,No
2024/05/28,04:20,0.149,0.132,0.215,0.201,0.207,0.118,0.076,north-northwest,5.1,No
2024/05/28,04:30,0.149,0.132,0.214,0.201,0.210,0.117,0.075,north-northwest,4.5,No
2024/05/28,04:40,0.149,0.132,0.214,0.201,0.207,0.117,0.076,north,5.7,No
2024/05/28,04:50,0.149,0.132,0.215,0.202,0.208,0.117,0.075,north,5.0,No
2024/05/28,05:00,0.150,0.130,0.214,0.200,0.209,0.117,0.076,north,5.0,No
2024/05/28,05:10,0.149,0.132,0.217,0.201,0.206,0.117,0.076,north,5.3,No
2024/05/28,05:20,0.148,0.131,0.213,0.201,0.209,0.117,0.075,north,5.3,No
2024/05/28,05:30,0.149,0.131,0.215,0.199,0.206,0.117,0.075,north-northwest,4.5,Yes
2024/05/28,05:40,0.147,0.131,0.215,0.201,0.207,0.116,0.076,north-northwest,4.3,No
2024/05/28,05:50,0.149,0.132,0.213,0.200,0.209,0.117,0.075,north-northwest,3.6,No
2024/05/28,06:00,0.148,0.133,0.214,0.201,0.207,0.118,0.076,north-northwest,3.3,No
2024/05/28,06:10,0.147,0.130,0.212,0.200,0.209,0.117,0.076,north,3.8,No
2024/05/28,06:20,0.150,0.131,0.214,0.200,0.208,0.117,0.075,north,3.3,No
2024/05/28,06:30,0.149,0.132,0.214,0.201,0.206,0.117,0.075,north,3.7,Yes
2024/05/28,06:40,0.149,0.130,0.214,0.199,0.209,0.117,0.076,north-northwest,1.3,Yes
2024/05/28,06:50,0.150,0.132,0.216,0.201,0.208,0.117,0.076,north,2.4,Yes
2024/05/28,07:00,0.149,0.133,0.214,0.203,0.207,0.118,0.077,north,3.7,Yes
2024/05/28,07:10,0.151,0.134,0.216,0.201,0.210,0.118,0.076,north,4.5,Yes
2024/05/28,07:20,0.151,0.134,0.216,0.203,0.208,0.119,0.078,north,4.8,Yes
2024/05/28,07:30,0.150,0.133,0.217,0.202,0.211,0.119,0.078,north,4.1,Yes
2024/05/28,07:40,0.151,0.134,0.217,0.202,0.209,0.118,0.078,north,4.1,Yes
2024/05/28,07:50,0.149,0.133,0.215,0.202,0.209,0.119,0.077,north-northwest,3.3,No
2024/05/28,08:00,0.150,0.133,0.216,0.202,0.210,0.118,0.076,north-northwest,2.6,No
2024/05/28,08:10,0.150,0.131,0.215,0.203,0.207,0.118,0.076,north-northwest,2.2,Yes
2024/05/28,08:20,0.150,0.132,0.215,0.200,0.208,0.117,0.076,northwest,1.5,Yes
2024/05/28,08:30,0.150,0.132,0.216,0.201,0.210,0.118,0.077,north-northeast,1.9,Yes
2024/05/28,08:40,0.150,0.134,0.216,0.202,0.209,0.121,0.078,north-northeast,2.1,Yes
2024/05/28,08:50,0.153,0.135,0.217,0.203,0.212,0.121,0.079,northeast,2.4,Yes
2024/05/28,09:00,0.152,0.136,0.218,0.205,0.210,0.122,0.079,northeast,1.9,Yes
2024/05/28,09:10,0.154,0.137,0.220,0.203,0.212,0.122,0.080,east,1.4,Yes
2024/05/28,09:20,0.154,0.138,0.218,0.206,0.210,0.124,0.082,north,1.5,Yes
2024/05/28,09:30,0.155,0.137,0.218,0.204,0.213,0.123,0.082,north-northeast,1.6,Yes
2024/05/28,09:40,0.152,0.136,0.216,0.206,0.210,0.122,0.082,north-northeast,1.9,Yes
2024/05/28,09:50,0.153,0.136,0.217,0.202,0.211,0.122,0.081,north-northwest,1.7,Yes
2024/05/28,10:00,0.151,0.135,0.217,0.202,0.209,0.121,0.080,north-northeast,3.0,Yes
2024/05/28,10:10,0.152,0.135,0.216,0.201,0.207,0.121,0.079,east-northeast,1.6,Yes
2024/05/28,10:20,0.152,0.134,0.213,0.199,0.209,0.120,0.079,north-northeast,2.6,Yes
2024/05/28,10:30,0.150,0.133,0.215,0.200,0.206,0.119,0.077,north-northeast,1.8,Yes
2024/05/28,10:40,0.150,0.133,0.212,0.199,0.209,0.118,0.078,north-northeast,1.9,Yes
2024/05/28,10:50,0.148,0.131,0.213,0.201,0.206,0.117,0.077,northeast,2.7,Yes
2024/05/28,11:00,0.149,0.131,0.211,0.197,0.206,0.119,0.077,northeast,2.3,Yes
2024/05/28,11:10,0.147,0.132,0.212,0.199,0.207,0.117,0.076,northeast,2.6,Yes
2024/05/28,11:20,0.148,0.131,0.212,0.197,0.206,0.118,0.076,northeast,3.4,Yes
2024/05/28,11:30,0.148,0.131,0.212,0.198,0.207,0.117,0.076,north-northeast,3.4,Yes
2024/05/28,11:40,0.148,0.130,0.211,0.198,0.207,0.118,0.076,north-northeast,3.7,Yes
2024/05/28,11:50,0.148,0.131,0.211,0.198,0.206,0.117,0.077,north-northeast,4.2,Yes
2024/05/28,12:00,0.147,0.130,0.212,0.198,0.205,0.117,0.076,north,4.3,Yes
2024/05/28,12:10,0.148,0.130,0.210,0.197,0.207,0.118,0.076,north-northeast,2.2,Yes
2024/05/28,12:20,0.148,0.130,0.211,0.198,0.204,0.116,0.076,north,2.1,Yes
2024/05/28,12:30,0.148,0.130,0.210,0.198,0.206,0.117,0.076,north,3.3,Yes
2024/05/28,12:40,0.147,0.130,0.212,0.198,0.205,0.117,0.075,north,3.8,Yes
2024/05/28,12:50,0.147,0.129,0.210,0.197,0.205,0.117,0.076,north,3.4,Yes
2024/05/28,13:00,0.146,0.129,0.211,0.198,0.204,0.116,0.075,north-northwest,4.2,Yes
2024/05/28,13:10,0.147,0.130,0.210,0.196,0.204,0.116,0.076,north-northwest,4.2,Yes
2024/05/28,13:20,0.147,0.130,0.212,0.197,0.205,0.116,0.075,north,4.0,Yes
2024/05/28,13:30,0.148,0.130,0.209,0.196,0.206,0.117,0.076,north,4.1,Yes
2024/05/28,13:40,0.147,0.130,0.211,0.198,0.205,0.117,0.075,north,4.0,Yes
2024/05/28,13:50,0.149,0.130,0.210,0.197,0.205,0.117,0.076,north,4.4,Yes
2024/05/28,14:00,0.148,0.130,0.212,0.199,0.206,0.117,0.076,north,3.3,Yes
2024/05/28,14:10,0.148,0.132,0.211,0.197,0.206,0.118,0.076,north,3.8,Yes
2024/05/28,14:20,0.147,0.130,0.212,0.199,0.207,0.118,0.076,north,3.7,Yes
2024/05/28,14:30,0.149,0.132,0.212,0.196,0.206,0.119,0.077,north,4.6,Yes
2024/05/28,14:40,0.148,0.131,0.212,0.199,0.207,0.119,0.077,north,4.6,Yes
2024/05/28,14:50,0.148,0.132,0.212,0.197,0.207,0.119,0.077,north-northwest,4.5,Yes
2024/05/28,15:00,0.149,0.131,0.211,0.198,0.208,0.118,0.077,north-northwest,4.4,Yes
2024/05/28,15:10,0.149,0.132,0.214,0.198,0.206,0.118,0.078,north-northwest,5.0,Yes
2024/05/28,15:20,0.150,0.132,0.212,0.200,0.205,0.120,0.078,north,4.3,Yes
2024/05/28,15:30,0.150,0.132,0.212,0.198,0.206,0.119,0.078,north-northwest,4.6,Yes
2024/05/28,15:40,0.149,0.131,0.211,0.199,0.207,0.118,0.078,north-northwest,5.2,Yes
2024/05/28,15:50,0.150,0.131,0.212,0.197,0.206,0.118,0.078,north-northwest,4.0,Yes
2024/05/28,16:00,0.149,0.132,0.212,0.199,0.206,0.118,0.077,north-northwest,5.0,Yes
2024/05/28,16:10,0.149,0.132,0.211,0.196,0.208,0.118,0.078,north-northwest,4.4,Yes
2024/05/28,16:20,0.148,0.131,0.210,0.198,0.205,0.119,0.077,north-northwest,4.7,Yes
2024/05/28,16:30,0.149,0.132,0.211,0.197,0.206,0.118,0.078,north-northwest,4.3,Yes
2024/05/28,16:40,0.149,0.132,0.212,0.199,0.206,0.119,0.078,north-northwest,4.7,Yes
2024/05/28,16:50,0.151,0.132,0.211,0.197,0.208,0.120,0.078,north,5.0,Yes
2024/05/28,17:00,0.148,0.134,0.212,0.199,0.207,0.120,0.080,north,5.4,Yes
2024/05/28,17:10,0.150,0.133,0.212,0.198,0.207,0.120,0.079,north,4.1,Yes
2024/05/28,17:20,0.151,0.132,0.212,0.198,0.207,0.119,0.080,north,3.6,Yes
2024/05/28,17:30,0.151,0.132,0.211,0.198,0.208,0.120,0.079,north-northwest,4.0,Yes
2024/05/28,17:40,0.150,0.132,0.211,0.197,0.208,0.120,0.079,north,4.3,Yes
2024/05/28,17:50,0.151,0.134,0.212,0.199,0.208,0.121,0.079,north-northwest,3.4,Yes
2024/05/28,18:00,0.150,0.133,0.212,0.198,0.206,0.121,0.080,north-northwest,4.4,Yes
2024/05/28,18:10,0.149,0.133,0.211,0.199,0.208,0.120,0.079,north-northwest,4.4,Yes
2024/05/28,18:20,0.149,0.133,0.209,0.197,0.206,0.120,0.079,north-northwest,5.6,Yes
2024/05/28,18:30,0.149,0.132,0.213,0.198,0.207,0.120,0.078,north-northwest,5.7,Yes
2024/05/28,18:40,0.149,0.131,0.210,0.197,0.207,0.119,0.078,north-northwest,5.3,Yes
2024/05/28,18:50,0.149,0.132,0.211,0.197,0.206,0.119,0.079,northwest,5.2,Yes
2024/05/28,19:00,0.150,0.132,0.209,0.197,0.207,0.120,0.079,northwest,5.1,Yes
2024/05/28,19:10,0.149,0.132,0.210,0.197,0.206,0.118,0.078,northwest,5.1,Yes
2024/05/28,19:20,0.148,0.132,0.209,0.198,0.206,0.120,0.078,northwest,5.4,Yes
2024/05/28,19:30,0.148,0.132,0.208,0.196,0.206,0.118,0.078,northwest,5.8,Yes
2024/05/28,19:40,0.148,0.131,0.209,0.196,0.205,0.119,0.077,northwest,6.6,Yes
2024/05/28,19:50,0.147,0.131,0.209,0.195,0.205,0.118,0.077,northwest,5.9,Yes
2024/05/28,20:00,0.147,0.130,0.208,0.195,0.205,0.118,0.078,northwest,6.2,Yes
2024/05/28,20:10,0.147,0.131,0.208,0.195,0.204,0.117,0.077,northwest,6.1,Yes
2024/05/28,20:20,0.148,0.129,0.208,0.194,0.205,0.117,0.077,northwest,4.9,Yes
2024/05/28,20:30,0.147,0.131,0.208,0.195,0.204,0.117,0.078,northwest,5.2,Yes
2024/05/28,20:40,0.147,0.130,0.208,0.195,0.205,0.118,0.077,northwest,4.9,Yes
2024/05/28,20:50,0.147,0.130,0.207,0.195,0.203,0.117,0.076,northwest,5.1,Yes
2024/05/28,21:00,0.146,0.129,0.205,0.193,0.204,0.116,0.076,northwest,5.5,Yes
2024/05/28,21:10,0.146,0.129,0.207,0.194,0.203,0.116,0.076,northwest,5.1,Yes
2024/05/28,21:20,0.146,0.131,0.205,0.193,0.205,0.117,0.076,north-northwest,4.8,Yes
2024/05/28,21:30,0.146,0.130,0.207,0.195,0.202,0.117,0.077,northwest,6.3,Yes
2024/05/28,21:40,0.146,0.130,0.205,0.193,0.203,0.117,0.078,north-northwest,6.0,Yes
2024/05/28,21:50,0.146,0.129,0.206,0.193,0.203,0.116,0.076,north-northwest,5.6,Yes
2024/05/28,22:00,0.146,0.129,0.205,0.193,0.203,0.116,0.078,north-northwest,5.3,Yes
2024/05/28,22:10,0.148,0.131,0.206,0.194,0.203,0.116,0.077,north-northwest,5.8,Yes
2024/05/28,22:20,0.147,0.130,0.207,0.194,0.203,0.117,0.079,northwest,5.3,Yes
2024/05/28,22:30,0.148,0.130,0.205,0.193,0.204,0.116,0.077,northwest,5.3,Yes
2024/05/28,22:40,0.146,0.129,0.206,0.193,0.203,0.116,0.077,northwest,5.1,Yes
2024/05/28,22:50,0.146,0.129,0.203,0.192,0.204,0.115,0.078,north-northwest,5.3,Yes
2024/05/28,23:00,0.146,0.129,0.205,0.191,0.201,0.115,0.077,northwest,5.3,Yes
2024/05/28,23:10,0.147,0.129,0.204,0.193,0.205,0.115,0.077,northwest,5.4,Yes
2024/05/28,23:20,0.145,0.129,0.205,0.192,0.203,0.114,0.077,north-northwest,4.6,Yes
2024/05/28,23:30,0.146,0.129,0.205,0.191,0.205,0.114,0.077,north-northwest,4.1,Yes
2024/05/28,23:40,0.146,0.129,0.205,0.192,0.203,0.115,0.077,north-northwest,2.6,Yes
2024/05/28,23:50,0.146,0.129,0.206,0.191,0.206,0.116,0.078,north-northwest,1.2,Yes
